This demonstration page uses our WeatherBlox Daily Observations layout. Learn more.

Left ArrowRight Arrow

39.29038, -76.61219

Hourly Observations for April 28, 2022

Temp ( °F °C ) Dew Point ( °F °C ) Humidity (%) Winds ( mph kmh ) Pressure ( in mb ) Visibility ( mi km ) Precip ( " mm )
12:54 am 00:54 Mostly Clear 42 5.6 25 -3.9 51 51 NW 13 20 30.13 1020 10 16 0.00 0.00
1:54 am 01:54 Partly Cloudy 41 5 25 -3.9 53 53 NW 13 20 30.14 1021 10 16 0.00 0.00
2:54 am 02:54 Mostly Cloudy 39 3.9 20 -6.7 46 46 N 10 17 30.16 1021 10 16 0.00 0.00
3:54 am 03:54 Mostly Clear 37 2.8 21 -6.1 52 52 NW 10 17 30.15 1021 10 16 0.00 0.00
4:54 am 04:54 Partly Cloudy 37 2.8 21 -6.1 52 52 WNW 10 17 30.15 1021 10 16 0.00 0.00
5:54 am 05:54 Partly Cloudy 37 2.8 22 -5.6 54 54 WNW 9 15 30.16 1022 10 16 0.00 0.00
6:54 am 06:54 Mostly Cloudy 37 2.8 22 -5.6 54 54 WNW 12 19 30.19 1022 10 16 0.00 0.00
7:54 am 07:54 Mostly Cloudy 40 4.4 23 -5 51 51 NW 12 19 30.21 1023 10 16 0.00 0.00
8:54 am 08:54 Mostly Cloudy 42 5.6 23 -5 47 47 NNW 14 22 30.22 1023 10 16 0.00 0.00
9:54 am 09:54 Partly Cloudy 44 6.7 24 -4.4 45 45 NW 10 17 30.21 1023 10 16 0.00 0.00
10:54 am 10:54 Mostly Sunny 47 8.3 23 -5 39 39 NW 14 22 30.21 1023 10 16 0.00 0.00
11:54 am 11:54 Sunny 50 10 25 -3.9 38 38 NW 15 24 30.19 1022 10 16 0.00 0.00
12:54 pm 12:54 Sunny 53 11.7 24 -4.4 32 32 NNW 14 22 30.16 1021 10 16 0.00 0.00
1:54 pm 13:54 Sunny 56 13.3 24 -4.4 29 29 NNW 10 17 30.14 1021 10 16 0.00 0.00
2:54 pm 14:54 Sunny 58 14.4 22 -5.6 25 25 WNW 15 24 30.12 1020 10 16 0.00 0.00
3:54 pm 15:54 Sunny 59 15 20 -6.7 22 22 NNW 15 24 30.10 1019 10 16 0.00 0.00
4:54 pm 16:54 Sunny 60 15.6 23 -5 24 24 NNW 15 24 30.08 1019 10 16 0.00 0.00
5:54 pm 17:54 Mostly Sunny 60 15.6 22 -5.6 23 23 NW 8 13 30.08 1019 10 16 0.00 0.00
6:54 pm 18:54 Mostly Sunny 58 14.4 20 -6.7 23 23 WNW 12 19 30.08 1019 10 16 0.00 0.00
7:54 pm 19:54 Partly Cloudy 54 12.2 20 -6.7 26 26 WNW 7 11 30.10 1019 10 16 0.00 0.00
8:54 pm 20:54 Mostly Clear 49 9.4 22 -5.6 35 35 WNW 6 9 30.11 1020 10 16 0.00 0.00
9:54 pm 21:54 Mostly Clear 46 7.8 25 -3.9 44 44 W 6 9 30.14 1021 10 16 0.00 0.00
10:54 pm 22:54 Mostly Clear 45 7.2 25 -3.9 46 46 W 7 11 30.14 1021 10 16 0.00 0.00
11:54 pm 23:54 Mostly Clear 46 7.8 24 -4.4 42 42 VRB 6 9 30.16 1021 10 16 0.00 0.00

Powered by AerisWeather